Weather History for Williston, ND

Change the Weather History Date:

Saturday, December 8, 2012

  Actual Average Record
Temperature  
Mean Temperature 9 °F 16 °F  
Max Temperature 19 °F 26 °F 52 °F (1925)
Min Temperature -1 °F 6 °F -31 °F (1927)
Degree Days  
Heating Degree Days 56 49  
Month to date heating degree days 325 382  
Since 1 July heating degree days 2485 2544  
Cooling Degree Days 0 0  
Month to date cooling degree days 0 0  
Year to date cooling degree days 532 456  
Moisture  
Dew Point 8 °F    
Average Humidity 86    
Maximum Humidity 92    
Minimum Humidity 80    
Precipitation  
Precipitation 0.23 in 0.01 in 0.26 in (1966)
Month to date precipitation 0.28 0.15  
Year to date precipitation 12.91 13.90  
Snow  
Snow 1.50 in 0.30 in 2.80 in (1966)
Month to date snowfall 1.5 2.0  
Snow Depth 1.00 in    
Sea Level Pressure  
Sea Level Pressure 29.96 in    
Wind  
Wind Speed 13 mph (NE)    
Max Wind Speed 24 mph    
Max Gust Speed 29 mph    
Visibility 5 miles    
Events Fog , Snow    
T = Trace of Precipitation, MM = Missing Value Source: NWS Daily Summary

Daily Weather History Graph

Daily Weather History Graph

Search for Another Location

Airport:

Trip Planner

Search our weather history database for the weather conditions in past years. The results will help you decide how hot, cold, wet, or windy it might be!

Date:

Astronomy

Dec. 08, 2012 Rise Set
Actual Time 8:32 AM CST 5:00 PM CST
Civil Twilight 7:56 AM CST 5:36 PM CST
Nautical Twilight 7:16 AM CST 6:16 PM CST
Astronomical Twilight 6:39 AM CST 6:54 PM CST
Moon 2:39 AM CST (12/8) 1:49 PM CST (12/8)
Length of Visible Light 9h 40m
Length of Day
8h 28m
Waning Crescent, 28% of the Moon is Illuminated
Dec 8
Waning Crescent
Dec 13
New
Dec 19
First Quarter
Dec 28
Full
Jan 4
Last Quarter

Hourly Weather History & Observations

Time (CST) Temp. Windchill Dew Point Humidity Pressure Visibility Wind Dir Wind Speed Gust Speed Precip Events Conditions
12:52 AM 18.0 °F 9.8 °F 16.0 °F 92% 29.90 in 10.0 mi ESE 5.8 mph - N/A   Overcast
1:52 AM 18.0 °F 8.7 °F 16.0 °F 92% 29.87 in 10.0 mi East 6.9 mph - N/A   Overcast
2:52 AM 18.0 °F 7.7 °F 15.1 °F 88% 29.86 in 10.0 mi East 8.1 mph - N/A   Overcast
3:52 AM 18.0 °F 6.9 °F 15.1 °F 88% 29.86 in 10.0 mi NE 9.2 mph - N/A   Overcast
4:06 AM 17.6 °F 6.4 °F 14.0 °F 86% 29.75 in 10.0 mi NE 9.2 mph - N/A   Overcast
4:52 AM 16.0 °F 4.4 °F 12.9 °F 88% 29.86 in 10.0 mi NE 9.2 mph - N/A   Overcast
5:52 AM 15.1 °F 5.2 °F 12.0 °F 88% 29.87 in 10.0 mi East 6.9 mph - N/A   Overcast
6:20 AM 15.8 °F 4.2 °F 12.2 °F 86% 29.75 in 5.0 mi NE 9.2 mph - 0.00 in Snow Light Snow
6:34 AM 14.0 °F 2.0 °F 12.2 °F 93% 29.75 in 2.0 mi NE 9.2 mph - 0.00 in Snow Light Snow
6:42 AM 14.0 °F 2.9 °F 12.2 °F 93% 29.75 in 1.5 mi ENE 8.1 mph - 0.01 in Snow Light Snow
6:52 AM 14.0 °F 1.2 °F 12.0 °F 92% 29.87 in 1.0 mi NE 10.4 mph - 0.01 in Snow Light Snow
7:05 AM 14.0 °F 1.2 °F 12.2 °F 93% 29.75 in 1.2 mi ENE 10.4 mph - 0.01 in Snow Light Snow
7:35 AM 14.0 °F 2.9 °F 12.2 °F 93% 29.75 in 2.0 mi NE 8.1 mph - 0.01 in Snow Light Snow
7:46 AM 14.0 °F 1.2 °F 10.4 °F 86% 29.75 in 3.0 mi NE 10.4 mph - 0.02 in Snow Light Snow
7:52 AM 14.0 °F 0.5 °F 10.9 °F 88% 29.87 in 4.0 mi NE 11.5 mph - 0.02 in Snow Light Snow
8:52 AM 12.9 °F -2.8 °F 10.0 °F 88% 29.89 in 2.0 mi NE 15.0 mph - 0.00 in Snow Light Snow
9:01 AM 12.2 °F -2.5 °F 10.4 °F 92% 29.78 in 1.8 mi NE 12.7 mph - 0.00 in Snow Light Snow
9:29 AM 12.2 °F -2.5 °F 10.4 °F 92% 29.79 in 1.2 mi NE 12.7 mph - 0.01 in Snow Light Snow
9:52 AM 12.0 °F -2.7 °F 9.0 °F 88% 29.91 in 0.8 mi NE 12.7 mph - 0.03 in Snow Light Snow
10:52 AM 12.0 °F -4.0 °F 10.0 °F 92% 29.94 in 0.8 mi NE 15.0 mph - 0.04 in Snow Light Snow
11:21 AM 12.2 °F -4.8 °F 8.6 °F 85% 29.83 in 0.8 mi NE 17.3 mph - 0.01 in Snow Light Snow
11:26 AM 12.2 °F -5.8 °F 8.6 °F 85% 29.83 in 1.0 mi NE 19.6 mph 23.0 mph 0.01 in Snow Light Snow
11:52 AM 12.9 °F -4.4 °F 9.0 °F 84% 29.95 in 1.8 mi NE 18.4 mph 26.5 mph 0.02 in Snow Light Snow
12:19 PM 12.2 °F -4.3 °F 8.6 °F 85% 29.84 in 2.0 mi NE 16.1 mph - 0.00 in Snow Light Snow
12:27 PM 12.2 °F -6.3 °F 8.6 °F 85% 29.84 in 3.0 mi NE 20.7 mph 26.5 mph 0.00 in Snow Light Snow
12:33 PM 12.2 °F -4.8 °F 8.6 °F 85% 29.85 in 2.5 mi NNE 17.3 mph 26.5 mph 0.00 in Snow Light Snow
12:52 PM 12.0 °F -5.6 °F 8.1 °F 84% 29.98 in 2.5 mi NNE 18.4 mph 25.3 mph 0.00 in Snow Light Snow
1:03 PM 10.4 °F -8.6 °F 8.6 °F 92% 29.86 in 1.2 mi NNE 20.7 mph 26.5 mph 0.00 in Snow Light Snow
1:10 PM 10.4 °F -9.1 °F 6.8 °F 85% 29.86 in 0.8 mi NNE 21.9 mph - 0.00 in Snow Light Snow
1:24 PM 10.4 °F -8.2 °F 8.6 °F 92% 29.87 in 0.5 mi NNE 19.6 mph - 0.01 in Fog , Snow Snow
1:52 PM 10.0 °F -8.1 °F 7.0 °F 87% 30.01 in 0.5 mi NNE 18.4 mph - 0.02 in Fog , Snow Snow
2:30 PM 8.6 °F -8.9 °F 5.0 °F 85% 29.90 in 1.0 mi NNE 16.1 mph 24.2 mph 0.01 in Snow Light Snow
2:39 PM 8.6 °F -10.0 °F 5.0 °F 85% 29.91 in 3.0 mi NNE 18.4 mph - 0.01 in Snow Light Snow
2:52 PM 9.0 °F -8.5 °F 3.9 °F 80% 30.04 in 10.0 mi NNE 16.1 mph - 0.01 in   Overcast
3:52 PM 8.1 °F -11.2 °F 3.0 °F 80% 30.10 in 10.0 mi NNE 19.6 mph 25.3 mph N/A   Overcast
4:52 PM 7.0 °F -11.6 °F 3.0 °F 84% 30.16 in 10.0 mi NNE 17.3 mph 28.8 mph N/A   Overcast
5:52 PM 6.1 °F -11.6 °F 1.9 °F 83% 30.21 in 10.0 mi NNE 15.0 mph - N/A   Partly Cloudy
6:52 PM 5.0 °F -11.6 °F -0.0 °F 80% 30.26 in 10.0 mi NNE 12.7 mph 21.9 mph N/A   Clear
7:52 PM 3.9 °F -13.0 °F -0.9 °F 80% 30.30 in 10.0 mi North 12.7 mph - N/A   Clear
8:52 PM 3.0 °F -13.3 °F -0.9 °F 84% 30.34 in 10.0 mi North 11.5 mph - N/A   Clear
9:52 PM 1.9 °F -14.7 °F -2.0 °F 83% 30.38 in 10.0 mi North 11.5 mph - N/A   Clear
10:52 PM -0.4 °F -16.7 °F -4.0 °F 85% 30.26 in 10.0 mi North 10.4 mph - N/A   Clear
11:52 PM -0.9 °F -14.1 °F -4.0 °F 87% 30.44 in 10.0 mi North 6.9 mph - N/A   Clear